GALAXY 34 (G-34)

Last updated on Tue Sep 22 2026 00:03:15 GMT+0000 (Coordinated Universal Time)

1 54027U 22128B 26263.96460515 .00000054 00000+0 00000+0 0 9995 2 54027 0.0137 236.1239 0001660 311.7397 30.2611 1.00275369 14877
UTC large
Height (km)
Speed (km/s)
/
Latitude / Longitude
Inclination (degrees)
Orbital Period (minutes)
Azimuth
Elevation
Range (km)
Doppler Factor

Next 0 passes for location: London (51.5072 / 0.1276)

No passes found over London.
GALAXY 34 (G-34)